When you browse on this site, cookies collect data to enhance your experience and personalize the content and advertising you see.
Visit our Privacy Policy to learn more. By continuing to use the site, you agree to this use of cookies and data.
  • In Sweden
  • List of Countries
  • For 7 days
  • Water Temperature
  • Satellite Maps
  • Weather Map
  • Weather Widgets
  • user-avatar
    Login

    Hourly Weather Batikent

    Today, 11 December, Tuesday

    Time Temperature Precipitation Wind Pressure Humidity
    00:00 +6°C° 1.4 mm 8 mps 674 mmHg 81%
    01:00 +6°C° 1.4 mm 7 mps 674 mmHg 84%
    02:00 +6°C° 0 mm 9 mps 673 mmHg 83%
    03:00 +5°C° 0.5 mm 9 mps 674 mmHg 81%
    04:00 +3°C° 0.5 mm 9 mps 674 mmHg 78%
    05:00 +3°C° 0.5 mm 9 mps 675 mmHg 76%
    06:00 +2°C° 0.1 mm 9 mps 676 mmHg 77%
    07:00 +2°C° 0.1 mm 9 mps 676 mmHg 78%
    08:00 +2°C° 0 mm 10 mps 678 mmHg 80%
    09:00 +2°C° 0.1 mm 9 mps 678 mmHg 77%
    10:00 +2°C° 0.1 mm 9 mps 679 mmHg 74%
    11:00 +2°C° 0.1 mm 8 mps 680 mmHg 71%
    12:00 +2°C° 0.1 mm 8 mps 680 mmHg 68%
    13:00 +3°C° 0.1 mm 7 mps 681 mmHg 66%
    14:00 +3°C° 0 mm 7 mps 681 mmHg 67%
    15:00 +2°C° 0 mm 5 mps 682 mmHg 69%
    16:00 +3°C° 0 mm 4 mps 682 mmHg 72%
    17:00 +3°C° 0 mm 2 mps 682 mmHg 74%
    18:00 +3°C° 0 mm 2 mps 682 mmHg 75%
    19:00 +4°C° 0 mm 1 mps 682 mmHg 76%
    20:00 +3°C° 0 mm 1 mps 682 mmHg 77%
    21:00 +3°C° 0 mm 1 mps 682 mmHg 77%
    22:00 +3°C° 0 mm 1 mps 682 mmHg 77%
    23:00 +3°C° 0 mm 1 mps 682 mmHg 77%

    Tomorrow, 12 December, Wednesday

    Time Temperature Precipitation Wind Pressure Humidity
    00:00 +3°C° 0.1 mm 1 mps 682 mmHg 77%
    01:00 +3°C° 0.1 mm 1 mps 682 mmHg 77%
    02:00 +3°C° 0.1 mm 1 mps 681 mmHg 77%
    03:00 +3°C° 0.1 mm 1 mps 682 mmHg 78%
    04:00 +3°C° 0.1 mm 1 mps 682 mmHg 79%
    05:00 +3°C° 0.1 mm 1 mps 682 mmHg 80%
    06:00 +2°C° 0 mm 1 mps 682 mmHg 80%
    07:00 +2°C° 0 mm 1 mps 682 mmHg 80%
    08:00 +1°C° 0 mm 0 mps 682 mmHg 80%
    09:00 +3°C° 0 mm 1 mps 682 mmHg 75%
    10:00 +4°C° 0 mm 1 mps 683 mmHg 70%
    11:00 +5°C° 0 mm 1 mps 683 mmHg 65%
    12:00 +5°C° 0 mm 1 mps 683 mmHg 63%
    13:00 +4°C° 0 mm 2 mps 683 mmHg 62%
    14:00 +5°C° 0 mm 2 mps 683 mmHg 61%
    15:00 +4°C° 0.1 mm 2 mps 683 mmHg 65%
    16:00 +2°C° 0.1 mm 3 mps 684 mmHg 70%
    17:00 +2°C° 0.1 mm 3 mps 684 mmHg 75%
    18:00 +1°C° 0.1 mm 3 mps 685 mmHg 78%
    19:00 0°C° 0.1 mm 4 mps 685 mmHg 81%
    20:00 -1°C° 0.1 mm 4 mps 685 mmHg 84%
    21:00 -1°C° 0 mm 4 mps 686 mmHg 84%
    22:00 -1°C° 0 mm 4 mps 686 mmHg 83%
    23:00 -2°C° 0 mm 4 mps 687 mmHg 82%

    Day after tomorrow, 13 December, Thursday

    Time Temperature Precipitation Wind Pressure Humidity
    00:00 -2°C° 0 mm 3 mps 687 mmHg 84%
    01:00 -2°C° 0 mm 3 mps 687 mmHg 85%
    02:00 -4°C° 0 mm 3 mps 688 mmHg 86%
    03:00 -4°C° 0 mm 3 mps 688 mmHg 86%
    04:00 -3°C° 0 mm 2 mps 688 mmHg 85%
    05:00 -4°C° 0 mm 2 mps 688 mmHg 85%
    06:00 -4°C° 0 mm 2 mps 688 mmHg 84%
    07:00 -3°C° 0 mm 2 mps 689 mmHg 82%
    08:00 -3°C° 0 mm 2 mps 689 mmHg 80%
    09:00 -2°C° 0 mm 2 mps 689 mmHg 74%
    10:00 -1°C° 0 mm 2 mps 690 mmHg 67%
    11:00 +1°C° 0 mm 2 mps 690 mmHg 61%
    12:00 +1°C° 0 mm 2 mps 690 mmHg 57%
    13:00 0°C° 0 mm 3 mps 689 mmHg 54%
    14:00 +1°C° 0 mm 3 mps 689 mmHg 51%
    15:00 +1°C° 0 mm 2 mps 689 mmHg 56%
    16:00 -1°C° 0 mm 2 mps 689 mmHg 60%
    17:00 -2°C° 0 mm 2 mps 689 mmHg 65%
    18:00 -2°C° 0 mm 2 mps 689 mmHg 66%
    19:00 0°C° 0 mm 1 mps 689 mmHg 67%
    20:00 0°C° 0 mm 1 mps 689 mmHg 68%
    21:00 0°C° 0 mm 1 mps 689 mmHg 68%
    22:00 0°C° 0 mm 1 mps 690 mmHg 68%
    23:00 0°C° 0 mm 1 mps 690 mmHg 68%

    14 December, Friday

    Time Temperature Precipitation Wind Pressure Humidity
    00:00 0°C° 0 mm 1 mps 689 mmHg 67%
    01:00 0°C° 0 mm 1 mps 689 mmHg 67%
    02:00 +1°C° 0 mm 1 mps 689 mmHg 67%
    03:00 0°C° 0.2 mm 1 mps 689 mmHg 72%
    04:00 0°C° 0.2 mm 1 mps 689 mmHg 78%
    05:00 0°C° 0.2 mm 1 mps 689 mmHg 83%
    06:00 0°C° 0.3 mm 1 mps 689 mmHg 84%
    07:00 0°C° 0.3 mm 1 mps 689 mmHg 85%
    08:00 0°C° 0.3 mm 1 mps 689 mmHg 86%
    09:00 +1°C° 0.1 mm 1 mps 689 mmHg 82%
    10:00 +2°C° 0.1 mm 1 mps 689 mmHg 78%
    11:00 +3°C° 0.1 mm 1 mps 690 mmHg 74%
    12:00 +3°C° 0 mm 1 mps 689 mmHg 72%
    13:00 +4°C° 0 mm 1 mps 689 mmHg 71%
    14:00 +4°C° 0 mm 1 mps 689 mmHg 69%
    15:00 +3°C° 0 mm 1 mps 689 mmHg 74%
    16:00 +2°C° 0 mm 1 mps 689 mmHg 80%
    17:00 0°C° 0 mm 0 mps 689 mmHg 85%
    18:00 +1°C° 0 mm 1 mps 690 mmHg 85%
    19:00 +1°C° 0 mm 1 mps 690 mmHg 85%
    20:00 +1°C° 0 mm 1 mps 690 mmHg 86%
    21:00 +1°C° 0 mm 1 mps 690 mmHg 86%
    22:00 +1°C° 0 mm 1 mps 690 mmHg 86%
    23:00 +1°C° 0 mm 1 mps 690 mmHg 86%

    15 December, Saturday

    Time Temperature Precipitation Wind Pressure Humidity
    00:00 +1°C° 0 mm 1 mps 690 mmHg 87%
    01:00 +1°C° 0 mm 1 mps 690 mmHg 88%
    02:00 +1°C° 0 mm 1 mps 690 mmHg 88%
    03:00 +1°C° 0 mm 1 mps 690 mmHg 89%
    04:00 +1°C° 0 mm 1 mps 690 mmHg 89%
    05:00 +1°C° 0 mm 1 mps 690 mmHg 90%
    06:00 +1°C° 0 mm 1 mps 690 mmHg 90%
    07:00 +2°C° 0 mm 1 mps 690 mmHg 89%
    08:00 +2°C° 0 mm 1 mps 690 mmHg 89%
    09:00 +4°C° 0 mm 1 mps 690 mmHg 85%
    10:00 +5°C° 0 mm 1 mps 690 mmHg 81%
    11:00 +6°C° 0 mm 1 mps 690 mmHg 78%
    12:00 +7°C° 0 mm 1 mps 690 mmHg 77%
    13:00 +7°C° 0 mm 1 mps 690 mmHg 76%
    14:00 +7°C° 0 mm 1 mps 689 mmHg 76%
    15:00 +6°C° 0 mm 1 mps 689 mmHg 80%
    16:00 +5°C° 0 mm 1 mps 689 mmHg 83%
    17:00 +4°C° 0 mm 1 mps 689 mmHg 87%
    18:00 +4°C° 0 mm 1 mps 689 mmHg 87%
    19:00 +4°C° 0 mm 1 mps 689 mmHg 88%
    20:00 +4°C° 0 mm 1 mps 689 mmHg 88%
    21:00 +4°C° 0 mm 1 mps 689 mmHg 88%
    22:00 +4°C° 0 mm 1 mps 689 mmHg 88%
    23:00 +4°C° 0 mm 1 mps 688 mmHg 88%

    16 December, Sunday

    Time Temperature Precipitation Wind Pressure Humidity
    00:00 +4°C° 0 mm 1 mps 688 mmHg 87%
    01:00 +4°C° 0 mm 1 mps 688 mmHg 86%
    02:00 +3°C° 0 mm 2 mps 688 mmHg 86%
    03:00 +3°C° 0.2 mm 2 mps 688 mmHg 86%
    04:00 +3°C° 0.2 mm 2 mps 688 mmHg 86%
    05:00 +4°C° 0.2 mm 1 mps 687 mmHg 86%
    06:00 +3°C° 0.2 mm 2 mps 687 mmHg 86%
    07:00 +4°C° 0.2 mm 2 mps 688 mmHg 85%
    08:00 +4°C° 0.2 mm 2 mps 688 mmHg 85%
    09:00 +5°C° 0.1 mm 2 mps 688 mmHg 81%
    10:00 +6°C° 0.1 mm 2 mps 688 mmHg 77%
    11:00 +7°C° 0.1 mm 2 mps 688 mmHg 73%
    12:00 +8°C° 0 mm 2 mps 687 mmHg 71%
    13:00 +8°C° 0 mm 2 mps 687 mmHg 69%
    14:00 +9°C° 0 mm 2 mps 687 mmHg 67%
    15:00 +8°C° 0 mm 2 mps 687 mmHg 70%
    16:00 +6°C° 0 mm 2 mps 687 mmHg 74%
    17:00 +5°C° 0 mm 2 mps 687 mmHg 78%
    18:00 +5°C° 0 mm 2 mps 687 mmHg 78%
    19:00 +5°C° 0 mm 2 mps 687 mmHg 78%
    20:00 +4°C° 0 mm 2 mps 687 mmHg 79%
    21:00 +4°C° 0 mm 2 mps 687 mmHg 78%
    22:00 +5°C° 0 mm 1 mps 687 mmHg 78%
    23:00 +5°C° 0 mm 1 mps 687 mmHg 78%
    Show more